Hourly Weather Roundup
Issued by NWS Central Illinois

Home | Current Version | Previous Version | Text Only | Print | Product List | Glossary On
Versions: 1 2 3 4 5 6 7 8 9 10 11 12 13 14 15 16 17 18 19 20 21 22 23 24 25 26 27 28 29 30 31 32 33 34 35 36 37 38 39 40 41 42 43 44 45 46 47 48 49 50
000
NZUS43 KILX 030110
HWRILX

AREA WEATHER ROUNDUP
NATIONAL WEATHER SERVICE, LINCOLN IL
800 PM CDT THU JUL 02 2015


CITY           SKY/WX    TMP DP  RH WIND       PRES   REMARKS
BLOOMINGTON    CLOUDY    70  62  75 NE13      29.93R
CHAMPAIGN      MOCLDY    73  61  65 NE7       29.90R
DANVILLE       CLOUDY    71  63  75 NE6       29.88S
DECATUR        CLOUDY    70  62  76 N7        29.90S
EFFINGHAM      CLOUDY    73  63  72 NW3       29.89R
FLORA          MOCLDY    74  68  82 CALM      29.87R
GALESBURG      CLOUDY    67  59  76 N6        29.95S
JACKSONVILLE   MOCLDY    70  64  81 N5        29.91F
LACON          CLOUDY    67  58  73 CALM      29.93S
LAWRENCEVILLE  MOCLDY    74  69  85 N5        29.86R
LITCHFIELD     CLOUDY    69  59  70 N7        29.90S
$$


CITY           SKY/WX    TMP DP  RH WIND       PRES   REMARKS
LINCOLN        CLOUDY    72  61  68 CALM      29.92R
MACOMB         CLOUDY    67  61  82 N5        29.96S
MATTOON        MOCLDY    72  66  81 N7        29.87S
MT CARMEL AP   CLOUDY    77  70  78 N3        29.85S
OLNEY-NOBLE AP CLOUDY    73  68  83 CALM      29.86S
PARIS          CLOUDY    73  66  79 N5        29.89R
PEORIA         CLOUDY    72  57  59 N5        29.93S
PONTIAC        CLOUDY    69  61  76 NE8       29.95R
RANTOUL        MOCLDY    73  59  61 NE9       29.91S
ROBINSON       MOCLDY    74  68  82 N3        29.86S
SPRINGFIELD    CLOUDY    71  63  75 N5        29.92R
TAYLORVILLE    CLOUDY    68  63  83 N3        29.91R
$$

...REGIONAL REPORTS...


CITY           SKY/WX    TMP DP  RH WIND       PRES   REMARKS
CHICAGO O`HARE MOCLDY    61  49  64 NE10      29.98R
KANKAKEE       CLOUDY    65  58  77 N6        29.95R
MOLINE         CLOUDY    69  56  62 NE8       29.95S
MOUNT STERLING NOT AVBL
MOUNT VERNON   MOCLDY    73  66  78 CALM      29.87S
PITTSFIELD     CLOUDY    68  61  77 CALM      29.93S
QUINCY         CLOUDY    67  59  75 NE8       29.92F
ROCKFORD       CLOUDY    68  53  58 E7        29.98S
$$


CITY           SKY/WX    TMP DP  RH WIND       PRES   REMARKS
BURLINGTON     CLOUDY    68  59  73 NE7       29.94S
CEDAR RAPIDS   CLOUDY    66  56  70 E5        29.97S
DES MOINES     CLOUDY    68  53  58 E5        29.95F
KIRKSVILLE     CLOUDY    66  58  75 NE7       29.94F
OTTUMWA        CLOUDY    68  56  65 NE7       29.94F
ST LOUIS       CLOUDY    75  62  64 NE8       29.89R
$$


CITY           SKY/WX    TMP DP  RH WIND       PRES   REMARKS
TERRE HAUTE    MOCLDY    75  69  81 CALM      29.86S
EVANSVILLE     MOCLDY    76  70  82 N3        29.85R
INDIANAPOLIS   CLOUDY    75  62  64 E14       29.86S
LAFAYETTE      MOCLDY    71  61  70 NE8       29.90R
MADISON        MOCLDY    66  49  54 NE5       29.98S
MILWAUKEE      MOCLDY    58  47  66 N9        30.00F
$$





USA.gov is the U.S. government's official web portal to all federal, state and local government web resources and services.